{"data":{"norad_id":61229,"epoch":"2026-05-25T05:05:26.289312Z","epoch_age_seconds":49977,"freshness":"FRESH","line1":"1 61229U 24173C   26145.21210983  .00032478  00000+0  62289-3 0  9994","line2":"2 61229  97.3412 227.4724 0011025 217.0885 142.9604 15.47872730 93176","mean_motion":15.4787273,"eccentricity":0.0011025,"inclination_deg":97.3412,"raan_deg":227.4724,"arg_perigee_deg":217.0885,"mean_anomaly_deg":142.9604,"bstar":0.00062289,"rev_number":9317,"period_min":93.030904420675,"perigee_km":415.4519824631,"apogee_km":430.44837969738,"semimajor_km":6801.0871810802,"source":"CELESTRAK","updated_at":"2026-05-25T13:38:02.343880Z"}}